Location: Fultenbach
(48.4918°N, 10.5731°E)
Time: 08:11:17
(UTC+00:00)

Cosmos 1386 Rocket - Pass Details

Date: 13 December 2025
Orbit: 928 x 1005 km, 83.0° (Epoch: 21 April)

Event Time Altitude Azimuth Distance (km) Brightness Sun altitude
Rises 17:43:46 0° 352° (N) 3,611 7.5 -22.3°
Reaches altitude 10° 17:46:16 10° 355° (N) 2,671 6.7 -22.7°
Maximum altitude 17:52:21 70° 79° (E) 1,018 4.3 -23.7°
Drops below altitude 10° 17:58:31 10° 163° (SSE) 2,705 6.7 -24.7°
Sets 18:01:03 0° 165° (SSE) 3,660 7.4 -25.1°
